Flag for Germany Weather past 2 weeks in Buxtehude, Lower Saxony, Germany

43 °F


Feels Like: 37 °F
Forecast: 37 / 50 °F
Wind: 9 mph from East

Location: Hamburg-Fuhlsbuettel

Current Time: Oct 10, 2015 at 10:10:57 PM

Latest Report: Oct 10, 2015 at 9:20 PM

Visibility: 10 mi

Pressure: 30.24 "Hg

Humidity: 71%

Dew point: 34 °F

Location of BuxtehudeLocation

Historic Weather in Buxtehude — Graph


Buxtehude temperature yesterday

Maximum temperature yesterday: 54 °F (at 5:50 PM)
Minimum temperature yesterday: 46 °F (at 10:50 PM)
Average temperature yesterday: 50 °F

Past Weeks' High & Low Weather Summary

High66 °F (Oct 3, 3:20 PM)100% (Sep 25, 11:20 PM)30.72 "Hg (Sep 25, 11:20 PM)
Low37 °F (Sep 29, 5:20 AM)47% (Oct 10, 2:20 PM)29.71 "Hg (Oct 6, 11:50 AM)
Average52 °F86%30.24 "Hg
* Reported Sep 25 8:20 PM — Oct 10 8:50 PM, Buxtehude, Weather by CustomWeather, © 2015

Note: Actual official high and low records may vary slightly from our data, if they occured in-between our weather recording intervals... More about our weather records


Buxtehude weather history for previous 24 hours

Time TempWeatherWind HumidityBarometerVisibility
8:50 PM
Sat, Oct 10
41 °FClear.8 mph76%30.24 "Hg10 mi
8:20 PM41 °FClear.8 mph76%30.24 "Hg10 mi
7:50 PM43 °FClear.6 mph71%30.24 "Hg10 mi
7:20 PM45 °FSunny.7 mph66%30.24 "Hg10 mi
6:50 PM45 °FSunny.8 mph66%30.24 "Hg10 mi
6:20 PM46 °FSunny.10 mph62%30.24 "Hg10 mi
5:50 PM48 °FSunny.13 mph58%30.24 "Hg10 mi
5:20 PM48 °FPassing clouds.13 mph58%30.24 "HgN/A
4:50 PM50 °FSunny.12 mph58%30.24 "Hg10 mi
4:20 PM50 °FSunny.14 mph54%30.24 "Hg10 mi
3:50 PM52 °FSunny.13 mph50%30.24 "Hg10 mi
3:20 PM52 °FSunny.12 mph50%30.24 "Hg10 mi
2:50 PM52 °FPassing clouds.10 mph50%30.24 "HgN/A
2:20 PM52 °FSunny.12 mph47%30.24 "Hg10 mi
1:50 PM52 °FSunny.14 mph50%30.24 "Hg10 mi
1:20 PM52 °FPassing clouds.10 mph50%30.27 "HgN/A
12:50 PM52 °FPassing clouds.14 mph50%30.27 "HgN/A
12:20 PM50 °FSunny.16 mph50%30.27 "Hg10 mi
11:50 AM50 °FSunny.14 mph58%30.27 "Hg10 mi
11:20 AM50 °FSunny.8 mph67%30.27 "Hg10 mi
10:50 AM46 °FPassing clouds.10 mph66%30.27 "HgN/A
10:20 AM46 °FSunny.9 mph66%30.27 "Hg10 mi
9:50 AM45 °FPassing clouds.9 mph71%30.27 "HgN/A
9:20 AM45 °FSunny.9 mph71%30.27 "Hg10 mi
8:50 AM43 °FSunny.7 mph76%30.27 "Hg10 mi
8:20 AM43 °FClear.6 mph81%30.27 "Hg10 mi
7:50 AM41 °FClear.5 mph87%30.27 "Hg10 mi
7:20 AM41 °FClear.5 mph87%30.27 "Hg10 mi
6:50 AM39 °FPassing clouds.5 mph93%30.27 "HgN/A
6:20 AM39 °FClear.5 mph93%30.27 "Hg10 mi
5:50 AM39 °FClear.6 mph93%30.24 "Hg10 mi
5:20 AM39 °FClear.5 mph93%30.27 "Hg10 mi
4:50 AM39 °FClear.7 mph93%30.27 "Hg10 mi
4:20 AM39 °FClear.6 mph93%30.27 "Hg10 mi
3:50 AM41 °FClear.3 mph93%30.27 "Hg10 mi
3:20 AM41 °FClear.5 mph93%30.27 "Hg10 mi
2:50 AM41 °FClear.6 mph93%30.24 "Hg10 mi
2:20 AM41 °FClear.6 mph93%30.24 "Hg10 mi
1:50 AM43 °FClear.5 mph87%30.24 "Hg10 mi
1:20 AM43 °FClear.6 mph87%30.24 "Hg10 mi
12:50 AM45 °FClear.7 mph87%30.24 "Hg10 mi
12:20 AM45 °FClear.7 mph87%30.24 "Hg10 mi
11:20 PM
Fri, Oct 9
46 °FClear.7 mph87%30.27 "Hg10 mi
10:50 PM46 °FPassing clouds.7 mph87%30.27 "HgN/A
10:20 PM48 °FPassing clouds.6 mph82%30.27 "HgN/A
Weather by CustomWeather, © 2015

See weather overviewHow to use our weather pages